Location: Roc des P�zouls
(43.9667°N, 3.5500°E)
Time: 01:04:29
(UTC+00:00)

Cosmos 1697 Rocket - Pass Details

Date: 14 November 2019
Orbit: 833 x 842 km, 71.0° (Epoch: 07 December)

Event Time Altitude Azimuth Distance (km) Brightness Sun altitude
Exits shadow 03:03:12 27° 86° (E) 1,553 4.5 -38.7°
Drops below altitude 10° 03:06:30 10° 117° (ESE) 2,442 5.6 -38.1°
Sets 03:09:11 0° 127° (SE) 3,371 6.3 -37.6°
